Weather Roundup
Issued by NWS Corpus Christi, TX

Home | Current Version | Previous Version | Text Only | Print | Product List | Glossary On
Versions: 1 2 3 4 5 6 7 8 9 10 11 12 13 14 15 16 17 18 19 20 21 22 23 24 25 26 27 28 29 30 31 32 33 34 35 36 37 38 39 40 41 42 43 44 45 46 47 48 49 50
000
ASUS44 KCRP 281110
HRRCRP

SOUTH TEXAS REGIONAL WEATHER ROUNDUP
NATIONAL WEATHER SERVICE CORPUS CHRISTI TX
600 AM CDT TUE JUL 28 2015


TXZ229>244-281200-
...CORPUS CHRISTI AREA OBSERVATIONS...

CITY           SKY/WX    TMP DP  RH WIND       PRES   REMARKS
CORPUS CHRISTI MOCLDY    81  77  88 SE9       29.91S
NAS CORPUS CHR PTCLDY    82  77  84 SE10      29.91F HX  90
ROCKPORT       PTCLDY    82  78  88 S7        29.92R HX  91
KINGSVILLE NAS PTCLDY    80  79  96 SE6       29.90F
ALICE          CLOUDY    79  77  94 SE7       29.90S
FALFURRIAS     PTCLDY    78  76  94 E5        29.89F
$$

...VICTORIA AREA OBSERVATIONS...

CITY           SKY/WX    TMP DP  RH WIND       PRES   REMARKS
VICTORIA       CLEAR     74  74 100 CALM      29.94S FOG
BEEVILLE       CLOUDY    72  72 100 CALM      29.93R FOG
PLEASANTON     MOCLDY    75  74  94 E3        29.93S FOG
SAN ANTONIO    CLOUDY    79  73  82 S10       29.97R
$$

...LAREDO AREA OBSERVATIONS...

CITY           SKY/WX    TMP DP  RH WIND       PRES   REMARKS
LAREDO         CLEAR     79  74  84 SE8       29.90S
COTULLA        CLOUDY    80  74  81 SE12      29.91R
DEL RIO        PTCLDY    78  72  81 E9        29.91R
MCALLEN        PTCLDY    84  77  79 SE15      29.89S HX  94
HEBBRONVILLE     N/A     77  75  93 SE8       29.92R
$$

...OTHER TEXAS OBSERVATIONS...

CITY           SKY/WX    TMP DP  RH WIND       PRES   REMARKS
BROWNSVILLE    CLEAR     79  77  94 SE6       29.90S
HOUSTON        PTCLDY    77  75  93 S3        29.95S
COL. STATION   MOCLDY    77  75  93 SE3       29.96R
AUSTIN         PTCLDY    75  75 100 S7        29.95S
WACO           CLEAR     78  73  84 S12       29.94R
FORT WORTH     CLEAR     81  69  67 S10       29.92R
WICHITA FALLS  CLEAR     75  68  78 S9        29.91R
LUBBOCK        CLEAR     76  60  57 S7        29.99S
EL PASO        MOCLDY    80  55  42 SW13      30.01S
$$

...MARINE OBSERVATIONS...

STATION/POSITION TIME  SKY/WX   TEMP    WIND        PRES    VSBY  WAVE   SWELL
                                AIR SEA DIR/SP/G                  HT/PER HT/PER
                 (UTC)          (F)     (DEG/KT/KT) (MB)    (MI)  (FT/S) (FT/S)
PORT ARANSAS     1100            81 82  150/ 11/ 12 1013.7R
BUOY 90 E PORT A 1050            85 86  180/ 12/ 14 1013.6F         3/ 5   2/ 9
BUOY 45 SE BAFFI 1050            84 83  160/ 14/ 16 1012.7R         3/ 6
BUOY 200 E PT IS 1050            85 86  180/  8/ 10 1014.5R         2/ 4   2/ 4
BUOY 15 E GALVES 1050            85 86  200/ 10/ 12 1013.7R         2/ 4   2/ 6
$$



USA.gov is the U.S. government's official web portal to all federal, state and local government web resources and services.